Flag for United Kingdom Weather past 2 weeks in Glasgow, Scotland, United Kingdom

39 °F

Passing clouds.

Feels Like: 32 °F
Forecast: 33 / 40 °F
Wind: 10 mph from West

Location: Glasgow Airport

Current Time: Nov 30, 2015 at 3:34:49 AM

Latest Report: Nov 30, 2015 at 2:50 AM

Visibility: N/A

Pressure: 29.74 "Hg

Humidity: 87%

Dew point: 36 °F

Location of GlasgowLocation

Historic Weather in Glasgow — Graph


Glasgow temperature yesterday

Maximum temperature yesterday: 46 °F (at 10:20 AM)
Minimum temperature yesterday: 37 °F (at 6:20 PM)
Average temperature yesterday: 40 °F

Past Weeks' High & Low Weather Summary

High59 °F (Nov 15, 5:50 PM)100% (Nov 15, 2:20 AM)30.21 "Hg (Nov 15, 2:20 AM)
Low28 °F (Nov 22, 8:20 PM)56% (Nov 21, 3:20 AM)28.97 "Hg (Nov 29, 10:50 AM)
Average44 °F86%29.63 "Hg
* Reported Nov 15 2:20 AM — Nov 30 2:20 AM, Glasgow, Weather by CustomWeather, © 2015

Note: Actual official high and low records may vary slightly from our data, if they occured in-between our weather recording intervals... More about our weather records


Glasgow weather history for previous 24 hours

Time TempWeatherWind HumidityBarometerVisibility
2:20 AM
Mon, Nov 30
39 °FLight rain. Mostly cloudy.16 mph87%29.74 "HgN/A
12:50 AM37 °FPassing clouds.10 mph93%29.71 "Hg3 mi
12:20 AM37 °FPassing clouds.18 mph87%29.71 "HgN/A
11:50 PM
Sun, Nov 29
39 °FPartly cloudy.13 mph81%29.68 "HgN/A
10:50 PM37 °FPassing clouds.13 mph81%29.65 "HgN/A
10:20 PM39 °FLight rain. Passing clouds.22 mph70%29.65 "HgN/A
9:50 PM37 °FPassing clouds.13 mph75%29.62 "HgN/A
9:20 PM39 °FPassing clouds.17 mph70%29.62 "HgN/A
8:50 PM37 °FLight rain. Partly cloudy.18 mph81%29.62 "Hg6 mi
8:20 PM37 °FLight rain. Passing clouds.21 mph81%29.59 "HgN/A
7:50 PM37 °FPassing clouds.14 mph75%29.56 "HgN/A
7:20 PM39 °FLight rain. Partly cloudy.21 mph75%29.53 "HgN/A
6:50 PM39 °FPassing clouds.20 mph81%29.50 "HgN/A
6:20 PM37 °FPassing clouds.25 mph87%29.47 "Hg1 mi
5:50 PM41 °FPassing clouds.17 mph70%29.45 "HgN/A
5:20 PM39 °FLight rain. Passing clouds.13 mph81%29.42 "HgN/A
4:50 PM39 °FLight rain. Passing clouds.18 mph81%29.42 "HgN/A
4:20 PM39 °FPassing clouds.20 mph81%29.39 "HgN/A
3:50 PM39 °FLight rain. Scattered clouds.20 mph81%29.36 "HgN/A
3:20 PM39 °FScattered clouds.14 mph87%29.33 "HgN/A
2:50 PM39 °FLight rain. Partly sunny.18 mph87%29.33 "HgN/A
2:20 PM39 °FLight rain. Scattered clouds.15 mph87%29.30 "HgN/A
1:50 PM39 °FBroken clouds.12 mph93%29.27 "HgN/A
1:20 PM39 °FRain. Overcast.15 mph87%29.27 "Hg2 mi
12:50 PM41 °FLight rain. Broken clouds.16 mph87%29.24 "HgN/A
12:20 PM41 °FPassing clouds.17 mph81%29.21 "HgN/A
11:50 AM39 °FLight rain. Broken clouds.10 mph93%29.15 "HgN/A
11:20 AM41 °FPartly sunny.17 mph87%29.06 "HgN/A
10:50 AM46 °FLight rain. Broken clouds.20 mph93%28.97 "Hg3 mi
10:20 AM46 °FRain. Broken clouds.22 mph93%29.00 "Hg5 mi
9:50 AM41 °FRain. Mostly cloudy.3 mph100%29.03 "Hg2 mi
9:20 AM39 °FHeavy rain. Low clouds.6 mph93%29.06 "Hg2 mi
8:50 AM39 °FLight rain. Mostly cloudy.7 mph93%29.12 "Hg5 mi
8:20 AM39 °FLight rain. Mostly cloudy.3 mph93%29.15 "HgN/A
7:50 AM39 °FLight rain. Overcast.8 mph93%29.21 "HgN/A
7:20 AM39 °FLight rain. Mostly cloudy.6 mph93%29.24 "HgN/A
6:50 AM41 °FLight rain. Overcast.8 mph87%29.27 "Hg6 mi
6:20 AM41 °FLight rain. Mostly cloudy.9 mph81%29.27 "HgN/A
5:50 AM41 °FLight rain. Passing clouds.10 mph87%29.27 "HgN/A
5:20 AM41 °FLight rain. Passing clouds.13 mph87%29.30 "HgN/A
4:20 AM43 °FPassing clouds.14 mph81%29.30 "HgN/A
3:50 AM41 °FQuite cool.16 mph81%29.30 "HgN/A
3:20 AM41 °FLight rain. Partly cloudy.14 mph81%29.30 "HgN/A
Weather by CustomWeather, © 2015

See weather overviewHow to use our weather pages